When you browse on this site, cookies collect data to enhance your experience and personalize the content and advertising you see.
Visit our Privacy Policy to learn more. By continuing to use the site, you agree to this use of cookies and data.
  • En España
  • Lista de países
  • Para 7 días
  • Temperatura del agua
  • El tiempo en el mapa
  • Informadores
  • user-avatar
    Iniciar sesión

    Tiempo cada hora San Miguel de Tucumán

    Hoy, 8 Diciembre, Domingo

    Tiempo Temperatura Precipitaciones Viento Presión Humedad
    00:00 +23°C° 0.4 mm 2 mps 716 mmHg 86%
    01:00 +21°C° 0.4 mm 2 mps 716 mmHg 85%
    02:00 +21°C° 0.4 mm 2 mps 716 mmHg 85%
    03:00 +22°C° 1 mm 1 mps 716 mmHg 86%
    04:00 +21°C° 1 mm 1 mps 716 mmHg 88%
    05:00 +21°C° 1 mm 1 mps 716 mmHg 89%
    06:00 +22°C° 0.9 mm 1 mps 716 mmHg 85%
    07:00 +24°C° 0.9 mm 1 mps 717 mmHg 82%
    08:00 +25°C° 0.9 mm 1 mps 718 mmHg 78%
    09:00 +27°C° 0.2 mm 1 mps 718 mmHg 70%
    10:00 +29°C° 0.2 mm 1 mps 718 mmHg 61%
    11:00 +31°C° 0.2 mm 1 mps 718 mmHg 53%
    12:00 +32°C° 0.6 mm 1 mps 718 mmHg 53%
    13:00 +32°C° 0.6 mm 1 mps 717 mmHg 53%
    14:00 +32°C° 0.6 mm 1 mps 717 mmHg 54%
    15:00 +32°C° 1.1 mm 1 mps 717 mmHg 56%
    16:00 +31°C° 1.1 mm 1 mps 716 mmHg 58%
    17:00 +30°C° 1.1 mm 1 mps 716 mmHg 61%
    18:00 +29°C° 0.2 mm 1 mps 716 mmHg 65%
    19:00 +27°C° 0.2 mm 1 mps 717 mmHg 69%
    20:00 +25°C° 0.2 mm 1 mps 717 mmHg 74%
    21:00 +25°C° 0 mm 2 mps 717 mmHg 74%
    22:00 +24°C° 0 mm 2 mps 718 mmHg 74%
    23:00 +24°C° 0 mm 2 mps 718 mmHg 74%

    Mañana, 9 Diciembre, Lunes

    Tiempo Temperatura Precipitaciones Viento Presión Humedad
    00:00 +24°C° 0 mm 2 mps 718 mmHg 72%
    01:00 +23°C° 0 mm 2 mps 717 mmHg 71%
    02:00 +23°C° 0 mm 2 mps 717 mmHg 69%
    03:00 +23°C° 0 mm 2 mps 717 mmHg 70%
    04:00 +23°C° 0 mm 1 mps 717 mmHg 71%
    05:00 +22°C° 0 mm 1 mps 717 mmHg 72%
    06:00 +24°C° 0 mm 1 mps 718 mmHg 66%
    07:00 +26°C° 0 mm 1 mps 718 mmHg 60%
    08:00 +27°C° 0 mm 0 mps 719 mmHg 54%
    09:00 +30°C° 0.1 mm 1 mps 719 mmHg 48%
    10:00 +32°C° 0.1 mm 1 mps 719 mmHg 43%
    11:00 +35°C° 0.1 mm 2 mps 719 mmHg 37%
    12:00 +36°C° 0.2 mm 2 mps 718 mmHg 36%
    13:00 +36°C° 0.2 mm 2 mps 718 mmHg 35%
    14:00 +37°C° 0.2 mm 2 mps 717 mmHg 33%
    15:00 +36°C° 0.1 mm 2 mps 716 mmHg 36%
    16:00 +35°C° 0.1 mm 2 mps 716 mmHg 39%
    17:00 +34°C° 0.1 mm 1 mps 715 mmHg 42%
    18:00 +32°C° 0 mm 1 mps 716 mmHg 46%
    19:00 +30°C° 0 mm 2 mps 716 mmHg 50%
    20:00 +29°C° 0 mm 2 mps 716 mmHg 54%
    21:00 +28°C° 0.3 mm 2 mps 716 mmHg 58%
    22:00 +27°C° 0.3 mm 3 mps 717 mmHg 62%
    23:00 +26°C° 0.3 mm 3 mps 717 mmHg 66%

    Pasado mañana, 10 Diciembre, Martes

    Tiempo Temperatura Precipitaciones Viento Presión Humedad
    00:00 +26°C° 0.1 mm 3 mps 717 mmHg 67%
    01:00 +25°C° 0.1 mm 2 mps 716 mmHg 67%
    02:00 +25°C° 0.1 mm 2 mps 716 mmHg 68%
    03:00 +24°C° 0 mm 2 mps 716 mmHg 68%
    04:00 +24°C° 0 mm 1 mps 716 mmHg 68%
    05:00 +24°C° 0 mm 1 mps 716 mmHg 68%
    06:00 +26°C° 0 mm 1 mps 716 mmHg 63%
    07:00 +28°C° 0 mm 1 mps 717 mmHg 57%
    08:00 +28°C° 0 mm 0 mps 718 mmHg 51%
    09:00 +32°C° 0.1 mm 1 mps 718 mmHg 46%
    10:00 +34°C° 0.1 mm 1 mps 718 mmHg 41%
    11:00 +36°C° 0.1 mm 1 mps 718 mmHg 36%
    12:00 +37°C° 0.1 mm 1 mps 718 mmHg 34%
    13:00 +39°C° 0.1 mm 1 mps 717 mmHg 31%
    14:00 +41°C° 0.1 mm 1 mps 717 mmHg 29%
    15:00 +38°C° 0.3 mm 2 mps 716 mmHg 35%
    16:00 +36°C° 0.3 mm 2 mps 715 mmHg 41%
    17:00 +34°C° 0.3 mm 3 mps 715 mmHg 47%
    18:00 +31°C° 0.1 mm 3 mps 715 mmHg 51%
    19:00 +30°C° 0.1 mm 2 mps 715 mmHg 55%
    20:00 +28°C° 0.1 mm 2 mps 716 mmHg 59%
    21:00 +28°C° 0 mm 2 mps 716 mmHg 59%
    22:00 +28°C° 0 mm 2 mps 716 mmHg 58%
    23:00 +28°C° 0 mm 3 mps 716 mmHg 58%

    11 Diciembre, Miércoles

    Tiempo Temperatura Precipitaciones Viento Presión Humedad
    00:00 +27°C° 0 mm 2 mps 716 mmHg 58%
    01:00 +27°C° 0 mm 2 mps 715 mmHg 59%
    02:00 +26°C° 0 mm 2 mps 715 mmHg 59%
    03:00 +26°C° 0 mm 1 mps 714 mmHg 60%
    04:00 +25°C° 0 mm 1 mps 714 mmHg 60%
    05:00 +25°C° 0 mm 1 mps 714 mmHg 61%
    06:00 +27°C° 0 mm 1 mps 714 mmHg 55%
    07:00 +29°C° 0 mm 2 mps 714 mmHg 50%
    08:00 +32°C° 0 mm 2 mps 715 mmHg 45%
    09:00 +35°C° 0 mm 2 mps 714 mmHg 40%
    10:00 +38°C° 0 mm 2 mps 714 mmHg 34%
    11:00 +40°C° 0 mm 3 mps 714 mmHg 29%
    12:00 +42°C° 0 mm 3 mps 714 mmHg 27%
    13:00 +43°C° 0 mm 3 mps 713 mmHg 25%
    14:00 +43°C° 0 mm 2 mps 712 mmHg 22%
    15:00 +43°C° 0 mm 2 mps 712 mmHg 23%
    16:00 +42°C° 0 mm 2 mps 711 mmHg 24%
    17:00 +42°C° 0 mm 2 mps 710 mmHg 25%
    18:00 +39°C° 0 mm 2 mps 711 mmHg 31%
    19:00 +36°C° 0 mm 2 mps 711 mmHg 37%
    20:00 +32°C° 0 mm 2 mps 711 mmHg 43%
    21:00 +32°C° 0 mm 2 mps 712 mmHg 45%
    22:00 +31°C° 0 mm 2 mps 712 mmHg 47%
    23:00 +30°C° 0 mm 2 mps 712 mmHg 48%

    12 Diciembre, Jueves

    Tiempo Temperatura Precipitaciones Viento Presión Humedad
    00:00 +30°C° 0 mm 2 mps 713 mmHg 50%
    01:00 +29°C° 0 mm 2 mps 713 mmHg 51%
    02:00 +29°C° 0 mm 2 mps 714 mmHg 52%
    03:00 +27°C° 0.2 mm 2 mps 714 mmHg 59%
    04:00 +26°C° 0.2 mm 3 mps 715 mmHg 67%
    05:00 +24°C° 0.2 mm 3 mps 715 mmHg 75%
    06:00 +26°C° 0 mm 3 mps 716 mmHg 67%
    07:00 +28°C° 0 mm 3 mps 717 mmHg 59%
    08:00 +30°C° 0 mm 2 mps 718 mmHg 51%
    09:00 +30°C° 0 mm 3 mps 719 mmHg 49%
    10:00 +31°C° 0 mm 3 mps 719 mmHg 47%
    11:00 +33°C° 0 mm 3 mps 719 mmHg 44%
    12:00 +33°C° 0 mm 3 mps 719 mmHg 43%
    13:00 +33°C° 0 mm 3 mps 718 mmHg 41%
    14:00 +34°C° 0 mm 3 mps 718 mmHg 39%
    15:00 +34°C° 0 mm 3 mps 717 mmHg 39%
    16:00 +32°C° 0 mm 2 mps 717 mmHg 39%
    17:00 +32°C° 0 mm 2 mps 716 mmHg 38%
    18:00 +30°C° 0 mm 2 mps 717 mmHg 41%
    19:00 +28°C° 0 mm 1 mps 717 mmHg 44%
    20:00 +24°C° 0 mm 0 mps 717 mmHg 46%
    21:00 +26°C° 0 mm 1 mps 718 mmHg 46%
    22:00 +25°C° 0 mm 1 mps 718 mmHg 46%
    23:00 +25°C° 0 mm 1 mps 719 mmHg 45%

    13 Diciembre, Viernes

    Tiempo Temperatura Precipitaciones Viento Presión Humedad
    00:00 +25°C° 0.1 mm 1 mps 719 mmHg 46%
    01:00 +25°C° 0.1 mm 1 mps 719 mmHg 46%
    02:00 +25°C° 0.1 mm 1 mps 719 mmHg 46%
    03:00 +24°C° 0 mm 1 mps 719 mmHg 46%
    04:00 +24°C° 0 mm 1 mps 719 mmHg 47%
    05:00 +24°C° 0 mm 1 mps 719 mmHg 47%
    06:00 +25°C° 0 mm 1 mps 719 mmHg 44%
    07:00 +26°C° 0 mm 1 mps 719 mmHg 41%
    08:00 +28°C° 0 mm 1 mps 720 mmHg 37%
    09:00 +30°C° 0 mm 1 mps 720 mmHg 34%
    10:00 +32°C° 0 mm 1 mps 720 mmHg 30%
    11:00 +35°C° 0 mm 2 mps 720 mmHg 26%
    12:00 +36°C° 0 mm 2 mps 720 mmHg 26%
    13:00 +37°C° 0 mm 3 mps 719 mmHg 25%
    14:00 +38°C° 0 mm 3 mps 718 mmHg 25%
    15:00 +37°C° 0 mm 4 mps 717 mmHg 26%
    16:00 +37°C° 0 mm 4 mps 716 mmHg 28%
    17:00 +36°C° 0 mm 4 mps 716 mmHg 29%
    18:00 +34°C° 0 mm 3 mps 716 mmHg 35%
    19:00 +31°C° 0 mm 3 mps 716 mmHg 40%
    20:00 +28°C° 0 mm 2 mps 716 mmHg 46%
    21:00 +28°C° 0 mm 2 mps 717 mmHg 50%
    22:00 +27°C° 0 mm 2 mps 717 mmHg 54%
    23:00 +26°C° 0 mm 2 mps 717 mmHg 57%
    Mostrar más